[[{"header":{"parameterUnit":"m.s-1","parameterCategory":1,"la1":30.2991,"la2":30.254,"lo1":-89.0895,"lo2":-89.0444,"dy":0.0017,"dx":0.0017,"nx":28,"ny":28,"refTime":"2025-09-17T21:00:00:Z","depth":0,"parameterNumber":2,"parameterNumberName":"U-component_of_WINDS"},"data":[0,0,0,0,0,0,0,0,0,0,0,0,0,0,0,0,0,0,0,0,0,0,0,0,0,0,0,0,0,0,0,0,0,0,0,0,0,0,0,0,0,0,0,0,0,0,0,0,0,0,0,0,0,0,0,0,0,0,0.2578,0.2579,0,0.2668,0.2669,0.267,0.2712,0.2712,0.2712,0.2712,0.2805,0.2808,0.2811,0,0,0,0,0,0,0,0,0,0,0,0,0,0.244,0.2442,0.2578,0.2579,0.258,0.2668,0.267,0.2671,0.2712,0.2712,0.2712,0.2712,0.2805,0.2808,0.2811,0,0,0,0,0,0,0,0,0,0,0,0,0,0.2512,0.2443,0.2578,0.2612,0.2616,0.2668,0.267,0.2671,0.2712,0.2712,0.2712,0.2712,0.2804,0.2807,0.2811,0.2837,0,0,0.2823,0.2825,0,0,0,0,0,0,0,0,0.2508,0.2517,0.2606,0.2609,0.2614,0.2679,0.2655,0.2727,0.2712,0.2676,0.2712,0.2712,0.2764,0.2771,0.2788,0.2842,0.2846,0.2823,0.2826,0.2827,0.2828,0,0,0,0,0,0,0,0.2503,0.2513,0.2614,0.2607,0.2612,0.2622,0.2632,0.2669,0.2719,0.2679,0.2682,0.2692,0.2766,0.2784,0.279,0.2847,0.2823,0.2827,0.2829,0.283,0.2923,0.2923,0,0,0,0,0,0,0.2492,0.2509,0.2611,0.2617,0.2559,0.2624,0.2636,0.2658,0.2719,0.2728,0.2692,0.2694,0.2778,0.2786,0.2794,0.2826,0.2827,0.2831,0.2833,0.2923,0.2923,0.2923,0,0,0,0,0,0,0.2489,0.2501,0.2607,0.2564,0.2578,0.2627,0.2652,0.266,0.2678,0.2729,0.2738,0.2702,0.2778,0.2788,0.2825,0.283,0.2833,0.2836,0.2923,0.2923,0.2923,0.2892,0,0,0,0,0,0,0.2485,0.25,0.2511,0.2564,0.258,0.2638,0.2652,0.2662,0.2685,0.2688,0.274,0.2749,0.2779,0.2819,0.2829,0.2835,0.2839,0.2922,0.2923,0.2923,0.2893,0.2891,0.289,0,0,0,0,0,0.248,0.25,0.2511,0.2523,0.2595,0.2638,0.2647,0.2681,0.2685,0.2696,0.2728,0.2747,0.2828,0.2823,0.2834,0.2842,0.2922,0.2923,0.2923,0.2894,0.2892,0.289,0,0,0,0,0,0,0.2447,0.2507,0.2521,0.2558,0.2592,0.2645,0.266,0.2678,0.2713,0.2714,0.2754,0.2766,0.2798,0.2824,0.2817,0.2868,0.2877,0.2879,0.2851,0.2849,0.2848,0.2841,0.2842,0,0,0,0,0,0.2444,0.2474,0.2525,0.2553,0.2569,0.2611,0.2631,0.2654,0.2691,0.2706,0.2741,0.2777,0.281,0.2831,0.2864,0.2897,0.2908,0.2907,0.2906,0.2904,0.2906,0.2922,0.2922,0.2924,0.2924,0.2924,0,0,0.2439,0.2475,0.2492,0.2547,0.2576,0.2606,0.2624,0.2655,0.2677,0.2711,0.2748,0.2774,0.2816,0.285,0.2866,0.2872,0.2907,0.2905,0.2903,0.2906,0.2922,0.2922,0.2922,0.2924,0.2924,0.2924,0,0,0.2443,0.2474,0.25,0.2528,0.2571,0.2599,0.2604,0.2654,0.2672,0.2709,0.2734,0.276,0.2818,0.2845,0.2867,0.2878,0.2896,0.2888,0.288,0.2895,0.2895,0.2895,0.2897,0.2897,0.2889,0.2889,0.2889,0,0.2431,0.2477,0.2511,0.2539,0.2562,0.2593,0.2618,0.2644,0.2696,0.271,0.2716,0.2785,0.2816,0.2855,0.2857,0.2875,0.2881,0.2882,0.2892,0.2892,0.2893,0.2895,0.2896,0.2888,0.2888,0.2888,0.2888,0,0.2458,0.2489,0.2504,0.2552,0.2576,0.2603,0.264,0.266,0.268,0.2706,0.2741,0.2778,0.2819,0.283,0.285,0.2871,0.2873,0.2884,0.2894,0.2891,0.2893,0.2895,0.2886,0.2886,0.2887,0.2887,0,0,0.2447,0.2511,0.2516,0.2537,0.2585,0.2609,0.2636,0.2675,0.269,0.2724,0.2747,0.2792,0.2802,0.2827,0.285,0.2863,0.2866,0.2873,0.2874,0.2869,0.2889,0.2879,0.288,0.2878,0.2879,0.2879,0.2885,0,0.2457,0.2507,0.2537,0.2574,0.2602,0.263,0.2653,0.2684,0.2709,0.2735,0.2762,0.2793,0.2805,0.2819,0.2833,0.2863,0.2871,0.2863,0.2899,0.29,0.2887,0.2882,0.2873,0.2877,0.2887,0.2887,0.2887,0,0.2477,0.2508,0.2548,0.259,0.2603,0.2624,0.2659,0.2684,0.272,0.2736,0.2761,0.2783,0.2811,0.2817,0.2855,0.2849,0.2865,0.2881,0.2882,0.2887,0.2893,0.2885,0.288,0.288,0.2889,0.2889,0.2889,0,0.2462,0.2515,0.2545,0.2562,0.2613,0.2626,0.2648,0.2683,0.2703,0.2734,0.2746,0.278,0.2799,0.2824,0.2854,0.2856,0.2888,0.2897,0.2902,0.2901,0.2908,0.2907,0.2903,0.2919,0.2919,0.2919,0.2919,0,0.2471,0.2494,0.2539,0.2557,0.2582,0.2615,0.2639,0.2663,0.2694,0.2716,0.2742,0.2763,0.2801,0.2826,0.285,0.2876,0.2885,0.2898,0.2904,0.2895,0.2893,0.2906,0.2907,0.2919,0.2919,0.2919,0.2919,0,0.246,0.2491,0.2525,0.2569,0.2581,0.2597,0.2635,0.2652,0.2677,0.2705,0.2713,0.2751,0.2781,0.2813,0.2855,0.287,0.2895,0.2904,0.2883,0.2886,0.2888,0.2887,0.2892,0.2894,0.2909,0.2909,0.2908,0,0.2463,0.2481,0.2526,0.2542,0.2563,0.259,0.2609,0.2641,0.2661,0.27,0.2712,0.2744,0.2771,0.2817,0.2848,0.2879,0.2889,0.2888,0.2894,0.2883,0.2887,0.2885,0.2886,0.2887,0.2886,0.2886,0.2886,0,0.2464,0.2478,0.2506,0.2537,0.256,0.2587,0.2615,0.2626,0.2664,0.2684,0.2714,0.2734,0.2775,0.2805,0.2839,0.2861,0.2879,0.2883,0.2886,0.2877,0.2864,0.2869,0.2877,0.2884,0.2884,0.2884,0.2884,0.2884,0.246,0.2476,0.2509,0.2538,0.2562,0.2586,0.2604,0.263,0.2655,0.2691,0.2708,0.2737,0.2769,0.2816,0.2836,0.2859,0.2865,0.2869,0.287,0.287,0.2867,0.286,0.2866,0.2866,0.2866,0.2866,0.2866,0,0.2462,0.2484,0.251,0.2547,0.2568,0.2582,0.2613,0.263,0.2656,0.2683,0.2709,0.2742,0.277,0.2802,0.2832,0.2844,0.2853,0.2851,0.285,0.2854,0.2861,0.2855,0.2843,0.2843,0.2843,0.2843,0.2843,0.2843,0.2465,0.2492,0.2509,0.2547,0.2569,0.2598,0.2613,0.2635,0.2657,0.2693,0.2716,0.2736,0.2765,0.2797,0.2823,0.2831,0.2841,0.2836,0.2847,0.2852,0.2854,0.2856,0.2851,0.2838,0.2838,0.2838,0.2838,0.2838]},{"header":{"parameterUnit":"m.s-1","parameterCategory":1,"la1":30.2991,"la2":30.254,"lo1":-89.0895,"lo2":-89.0444,"dy":0.0017,"dx":0.0017,"nx":28,"ny":28,"refTime":"2025-09-17T21:00:00:Z","depth":0,"parameterNumber":3,"parameterNumberName":"V-component_of_WINDS"},"data":[0,0,0,0,0,0,0,0,0,0,0,0,0,0,0,0,0,0,0,0,0,0,0,0,0,0,0,0,0,0,0,0,0,0,0,0,0,0,0,0,0,0,0,0,0,0,0,0,0,0,0,0,0,0,0,0,0,0,3.912,3.9121,0,3.9145,3.9146,3.9146,3.9161,3.9161,3.9162,3.9162,3.9184,3.9185,3.9185,0,0,0,0,0,0,0,0,0,0,0,0,0,3.9081,3.9082,3.912,3.9121,3.9121,3.9145,3.9146,3.9146,3.9161,3.9161,3.9162,3.9162,3.9184,3.9184,3.9185,0,0,0,0,0,0,0,0,0,0,0,0,0,3.9101,3.9082,3.912,3.9132,3.9133,3.9145,3.9146,3.9146,3.9161,3.9161,3.9162,3.9162,3.9184,3.9184,3.9185,3.9187,0,0,3.9188,3.9188,0,0,0,0,0,0,0,0,3.91,3.9103,3.913,3.9131,3.9132,3.9151,3.914,3.916,3.9161,3.915,3.9162,3.9162,3.9173,3.9174,3.9179,3.9188,3.9189,3.9188,3.9188,3.9188,3.9189,0,0,0,0,0,0,0,3.9099,3.9102,3.913,3.913,3.9132,3.9134,3.9137,3.9144,3.916,3.9151,3.9153,3.9156,3.9173,3.9178,3.9179,3.919,3.9188,3.9188,3.9189,3.9189,3.9199,3.9199,0,0,0,0,0,0,3.9096,3.91,3.9129,3.9131,3.9116,3.9134,3.9138,3.9144,3.916,3.9163,3.9155,3.9156,3.9176,3.9178,3.918,3.9182,3.9188,3.9189,3.919,3.9199,3.9199,3.9199,0,0,0,0,0,0,3.9095,3.9098,3.9128,3.9116,3.912,3.9135,3.9142,3.9145,3.915,3.9163,3.9166,3.9157,3.9177,3.9179,3.9185,3.9183,3.9189,3.919,3.92,3.9199,3.9199,3.9186,0,0,0,0,0,0,3.9094,3.9098,3.91,3.9116,3.9121,3.9134,3.9142,3.9145,3.9151,3.9152,3.9166,3.9168,3.9177,3.9184,3.9186,3.9184,3.9191,3.92,3.9199,3.9199,3.9187,3.9186,3.9184,0,0,0,0,0,3.9092,3.9096,3.91,3.9104,3.9124,3.9134,3.9137,3.9148,3.9151,3.9152,3.9161,3.9168,3.9183,3.9184,3.9187,3.9185,3.92,3.92,3.9199,3.9187,3.9186,3.9184,0,0,0,0,0,0,3.9079,3.9098,3.9104,3.9112,3.9122,3.9137,3.914,3.9146,3.9154,3.9155,3.9167,3.9169,3.9174,3.918,3.9181,3.9186,3.9192,3.9192,3.9182,3.9181,3.918,3.9178,3.9191,0,0,0,0,0,3.9077,3.9086,3.9101,3.9107,3.9112,3.9125,3.913,3.9137,3.9147,3.915,3.9159,3.9167,3.9174,3.9178,3.9184,3.9188,3.9189,3.9188,3.9186,3.9185,3.9185,3.9184,3.9183,3.9197,3.9197,3.9197,0,0,3.9074,3.9085,3.9089,3.9105,3.9113,3.9119,3.9128,3.9135,3.9139,3.9151,3.9157,3.9164,3.9173,3.9177,3.918,3.9183,3.9181,3.9185,3.9184,3.9184,3.9184,3.9182,3.9181,3.9197,3.9197,3.9197,0,0,3.907,3.908,3.9086,3.9093,3.9105,3.9113,3.9114,3.9128,3.9133,3.9139,3.9148,3.9152,3.9163,3.9169,3.9173,3.9168,3.9174,3.917,3.9163,3.9163,3.9162,3.9161,3.9157,3.9156,3.917,3.917,3.917,0,3.9064,3.9075,3.9087,3.9093,3.9098,3.911,3.9113,3.912,3.9133,3.9136,3.9139,3.9152,3.9159,3.9163,3.9162,3.9166,3.9166,3.9169,3.9161,3.916,3.916,3.9156,3.9155,3.9169,3.9169,3.9169,3.9169,0,3.9066,3.9073,3.9075,3.9088,3.9094,3.9098,3.9109,3.9113,3.9119,3.9126,3.913,3.9139,3.9147,3.9149,3.9155,3.9153,3.9154,3.9159,3.9165,3.9157,3.9154,3.9153,3.9168,3.9168,3.9169,3.9169,0,0,3.9056,3.9074,3.9074,3.9079,3.9092,3.9097,3.91,3.9108,3.911,3.9118,3.9121,3.9129,3.9133,3.9137,3.9144,3.9144,3.9136,3.9148,3.9149,3.9144,3.9132,3.9128,3.9126,3.914,3.914,3.914,3.9131,0,3.9054,3.9063,3.9072,3.9077,3.9083,3.9092,3.9095,3.9102,3.9108,3.9112,3.9118,3.9123,3.9129,3.9131,3.9131,3.9137,3.9134,3.9138,3.9141,3.9141,3.9137,3.9125,3.9121,3.9112,3.913,3.913,3.913,0,3.9053,3.906,3.9065,3.9075,3.9078,3.908,3.9087,3.9091,3.9098,3.9102,3.9106,3.9113,3.9115,3.912,3.9122,3.9125,3.9126,3.9129,3.9129,3.9129,3.9134,3.9124,3.911,3.9108,3.9128,3.9128,3.9129,0,3.9043,3.9054,3.9058,3.9062,3.9074,3.9075,3.908,3.9087,3.909,3.9095,3.9097,3.9102,3.9104,3.9107,3.9114,3.9117,3.9114,3.912,3.9116,3.9116,3.9115,3.9115,3.91,3.9117,3.9117,3.9117,3.9117,0,3.9039,3.9042,3.9054,3.9057,3.9059,3.9068,3.9069,3.9075,3.908,3.9082,3.909,3.9092,3.9101,3.9103,3.9108,3.9107,3.9109,3.9111,3.9112,3.911,3.9109,3.911,3.9111,3.9117,3.9117,3.9117,3.9117,0,3.9029,3.9038,3.9043,3.9053,3.9055,3.9056,3.9064,3.9065,3.9071,3.9073,3.9074,3.9082,3.9085,3.9092,3.9096,3.9099,3.9096,3.9099,3.9094,3.9095,3.9089,3.9089,3.9074,3.9071,3.9091,3.9091,3.9091,0,3.9026,3.9028,3.9038,3.904,3.9044,3.9048,3.9051,3.9059,3.9061,3.9068,3.9068,3.9071,3.9074,3.9076,3.9082,3.9084,3.9086,3.9081,3.9087,3.9083,3.9084,3.9084,3.9083,3.9079,3.9079,3.9079,3.9079,0,3.9019,3.9022,3.9026,3.9031,3.9034,3.9039,3.9043,3.9044,3.9053,3.9055,3.9057,3.9059,3.9063,3.9064,3.9067,3.907,3.9075,3.9077,3.9075,3.9073,3.9069,3.9069,3.9089,3.9077,3.9077,3.9077,3.9077,3.9077,3.9011,3.9012,3.9019,3.9022,3.9026,3.903,3.9031,3.9036,3.9038,3.9042,3.9046,3.9047,3.9051,3.9055,3.9058,3.9057,3.906,3.9059,3.9059,3.9058,3.9056,3.9069,3.9058,3.9058,3.9058,3.9058,3.9058,0,3.9003,3.9007,3.901,3.9015,3.9017,3.9022,3.9027,3.9028,3.9029,3.9032,3.9034,3.9035,3.9037,3.9041,3.9042,3.9041,3.9043,3.9041,3.9041,3.9041,3.9054,3.9054,3.9039,3.9039,3.9039,3.9039,3.9039,3.9039,3.8999,3.9,3.9004,3.9006,3.901,3.9011,3.9013,3.9015,3.9018,3.9019,3.902,3.9023,3.9026,3.9027,3.9027,3.9028,3.9027,3.9024,3.9026,3.9038,3.904,3.9042,3.9042,3.9024,3.9024,3.9012,3.9012,3.9012]}]]